User: anonymous   Login
Location: Newark
(43.6583°N, 1.6617°E)
Time: 22:24:44
(UTC+00:00)
Language:

Transit 2A Rocket - Orbit

View from above orbital plane
View from above orbital plane
View from above satellite
View from above satellite

Ground track
Ground track

The orbit data is extracted from the following two-line orbital elements,

1    47U 60007C   19236.19871013 -.00000055  00000-0  12830-4 0  9994
2    47  66.6638 232.4501 0225900 163.3982 197.4680 14.42046261 92124
Epoch (UTC): 24 August 2019 04:46:08
Eccentricity: 0.0225900
inclination: 66.6638°
perigee height: 590 km
apogee height: 913 km
right ascension of ascending node: 232.4501°
argument of perigee: 163.3982°
revolutions per day: 14.42046261
mean anomaly at epoch: 197.4680°
orbit number at epoch: 9212

The dashed part of the orbit path shows where the satellite is in the earth's shadow,  

DLR